Time,TemperatureF,DewpointF,PressureIn,WindDirection,WindDirectionDegrees,WindSpeedMPH,WindSpeedGustMPH,Humidity,HourlyPrecipIn,Conditions,Clouds,dailyrainin,SoftwareType,DateUTC
2013-05-26 00:01:00,49.6,35.5,30.27,West,270,0.0,0.0,58,0.00,,-RA,0.00,VWS V14.01,2013-05-26 04:01:00,
2013-05-26 00:06:00,49.5,35.7,30.27,WSW,248,0.0,0.0,59,0.00,,-RA,0.00,VWS V14.01,2013-05-26 04:06:00,
2013-05-26 00:11:00,49.3,36.0,30.27,WSW,248,0.0,0.0,60,0.00,,-RA,0.00,VWS V14.01,2013-05-26 04:11:00,
2013-05-26 00:16:00,49.1,35.8,30.27,WSW,248,0.0,0.0,60,0.00,,-RA,0.00,VWS V14.01,2013-05-26 04:16:00,
2013-05-26 00:21:00,48.7,35.9,30.27,East,90,0.0,0.0,61,0.00,,-RA,0.00,VWS V14.01,2013-05-26 04:21:00,
2013-05-26 00:26:00,48.7,35.9,30.27,East,90,0.0,0.0,61,0.00,,-RA,0.00,VWS V14.01,2013-05-26 04:26:00,
2013-05-26 00:31:00,48.6,36.2,30.27,East,90,0.0,0.0,62,0.00,,-RA,0.00,VWS V14.01,2013-05-26 04:31:00,
2013-05-26 00:36:00,48.2,36.2,30.27,ENE,68,0.0,0.0,63,0.00,,-RA,0.00,VWS V14.01,2013-05-26 04:36:00,
2013-05-26 00:41:00,48.0,36.8,30.27,ENE,68,0.0,0.0,65,0.00,,-RA,0.00,VWS V14.01,2013-05-26 04:41:00,
2013-05-26 00:46:00,48.0,36.8,30.27,ENE,68,0.0,0.0,65,0.00,,-RA,0.00,VWS V14.01,2013-05-26 04:46:00,
2013-05-26 00:51:00,47.8,37.0,30.27,ENE,68,0.0,0.0,66,0.00,,-RA,0.00,VWS V14.01,2013-05-26 04:51:00,
2013-05-26 00:56:00,47.7,36.9,30.27,ESE,112,0.0,0.0,66,0.00,,-RA,0.00,VWS V14.01,2013-05-26 04:56:00,
2013-05-26 01:01:00,47.7,37.3,30.27,ESE,112,0.0,0.0,67,0.00,,-RA,0.00,VWS V14.01,2013-05-26 05:01:00,
2013-05-26 01:06:00,47.5,37.1,30.27,ESE,112,0.0,0.0,67,0.00,,-RA,0.00,VWS V14.01,2013-05-26 05:06:00,
2013-05-26 01:11:00,47.3,37.3,30.27,ESE,112,0.0,0.0,68,0.00,,-RA,0.00,VWS V14.01,2013-05-26 05:11:00,
2013-05-26 01:16:00,47.3,37.7,30.27,ESE,112,0.0,0.0,69,0.00,,-RA,0.00,VWS V14.01,2013-05-26 05:16:00,
2013-05-26 01:21:00,47.1,37.5,30.27,ESE,112,0.0,0.0,69,0.00,,-RA,0.00,VWS V14.01,2013-05-26 05:21:00,
2013-05-26 01:26:00,47.1,37.8,30.27,ESE,112,0.0,0.0,70,0.00,,-RA,0.00,VWS V14.01,2013-05-26 05:26:00,
2013-05-26 01:31:00,46.9,37.7,30.27,ESE,112,0.0,0.0,70,0.00,,-RA,0.00,VWS V14.01,2013-05-26 05:31:00,
2013-05-26 01:36:00,46.8,37.5,30.27,ESE,112,0.0,0.0,70,0.00,,-RA,0.00,VWS V14.01,2013-05-26 05:36:00,
2013-05-26 01:41:00,46.8,37.9,30.27,NE,45,0.0,0.0,71,0.00,,-RA,0.00,VWS V14.01,2013-05-26 05:41:00,
2013-05-26 01:46:00,46.6,37.7,30.27,NE,45,0.0,0.0,71,0.00,,-RA,0.00,VWS V14.01,2013-05-26 05:46:00,
2013-05-26 01:51:00,46.6,37.7,30.27,NE,45,0.0,0.0,71,0.00,,-RA,0.00,VWS V14.01,2013-05-26 05:51:00,
2013-05-26 01:56:00,46.4,37.5,30.27,SSE,158,0.0,0.0,71,0.00,,-RA,0.00,VWS V14.01,2013-05-26 05:56:00,
2013-05-26 02:01:00,46.4,37.9,30.27,ENE,68,0.0,0.0,72,0.00,,-RA,0.00,VWS V14.01,2013-05-26 06:01:00,
2013-05-26 02:06:00,46.4,37.9,30.27,ENE,68,0.0,0.0,72,0.00,,-RA,0.00,VWS V14.01,2013-05-26 06:06:00,
2013-05-26 02:11:00,46.6,38.0,30.27,NNE,22,0.9,0.9,72,0.00,,-RA,0.00,VWS V14.01,2013-05-26 06:11:00,
2013-05-26 02:16:00,46.8,38.2,30.27,NNE,22,1.6,1.6,72,0.00,,-RA,0.00,VWS V14.01,2013-05-26 06:16:00,
2013-05-26 02:21:00,46.9,38.4,30.27,ENE,68,0.0,0.0,72,0.00,,-RA,0.00,VWS V14.01,2013-05-26 06:21:00,
2013-05-26 02:26:00,47.1,38.9,30.27,NE,45,3.1,3.1,73,0.00,,-RA,0.00,VWS V14.01,2013-05-26 06:26:00,
2013-05-26 02:31:00,47.1,38.6,30.27,South,180,0.0,0.0,72,0.00,,-RA,0.00,VWS V14.01,2013-05-26 06:31:00,
2013-05-26 02:36:00,47.3,38.4,30.27,NNW,338,0.0,0.0,71,0.00,,-RA,0.00,VWS V14.01,2013-05-26 06:36:00,
2013-05-26 02:41:00,47.3,38.7,30.27,NNE,22,1.3,1.3,72,0.00,,-RA,0.00,VWS V14.01,2013-05-26 06:41:00,
2013-05-26 02:46:00,47.3,38.4,30.27,NW,315,0.0,0.0,71,0.00,,-RA,0.00,VWS V14.01,2013-05-26 06:46:00,
2013-05-26 02:51:00,47.5,38.6,30.27,ENE,68,1.3,1.3,71,0.00,,-RA,0.00,VWS V14.01,2013-05-26 06:51:00,
2013-05-26 02:56:00,47.5,38.6,30.27,SSE,158,0.0,0.0,71,0.00,,-RA,0.00,VWS V14.01,2013-05-26 06:56:00,
2013-05-26 03:01:00,47.5,38.6,30.30,NNE,22,0.9,0.9,71,0.00,,-RA,0.00,VWS V14.01,2013-05-26 07:01:00,
2013-05-26 03:06:00,47.7,38.7,30.30,East,90,0.0,0.0,71,0.00,,-RA,0.00,VWS V14.01,2013-05-26 07:06:00,
2013-05-26 03:11:00,47.7,38.4,30.30,NNE,22,0.9,0.9,70,0.00,,-RA,0.00,VWS V14.01,2013-05-26 07:11:00,
2013-05-26 03:16:00,47.7,38.4,30.27,NE,45,3.1,3.1,70,0.00,,-RA,0.00,VWS V14.01,2013-05-26 07:16:00,
2013-05-26 23:00:00,59.2,33.6,30.21,NE,45,0.0,0.0,38,0.00,,-RA,0.00,VWS V14.01,2013-05-27 03:00:00,
2013-05-26 23:05:00,59.0,33.5,30.21,ENE,68,4.3,4.3,38,0.00,,-RA,0.00,VWS V14.01,2013-05-27 03:05:00,
2013-05-26 23:10:00,59.0,33.5,30.21,ESE,112,2.7,2.7,38,0.00,,-RA,0.00,VWS V14.01,2013-05-27 03:10:00,
2013-05-26 23:15:00,58.8,33.3,30.21,ESE,112,1.3,1.3,38,0.00,,-RA,0.00,VWS V14.01,2013-05-27 03:15:00,
2013-05-26 23:20:00,58.6,33.1,30.21,NNW,338,0.0,0.0,38,0.00,,-RA,0.00,VWS V14.01,2013-05-27 03:20:00,
2013-05-26 23:25:00,58.5,33.6,30.21,NE,45,1.1,1.1,39,0.00,,-RA,0.00,VWS V14.01,2013-05-27 03:25:00,
2013-05-26 23:30:00,58.3,33.5,30.21,East,90,1.3,1.3,39,0.00,,-RA,0.00,VWS V14.01,2013-05-27 03:30:00,
2013-05-26 23:35:00,58.1,33.3,30.21,NE,45,0.0,0.0,39,0.00,,-RA,0.00,VWS V14.01,2013-05-27 03:35:00,
2013-05-26 23:40:00,57.9,33.1,30.21,SSW,202,1.6,1.6,39,0.00,,-RA,0.00,VWS V14.01,2013-05-27 03:40:00,
2013-05-26 23:45:00,57.7,33.0,30.21,NE,45,0.0,0.0,39,0.00,,-RA,0.00,VWS V14.01,2013-05-27 03:45:00,
2013-05-26 23:50:00,57.6,32.8,30.21,SSW,202,2.2,2.2,39,0.00,,-RA,0.00,VWS V14.01,2013-05-27 03:50:00,
2013-05-26 23:55:00,57.4,33.3,30.21,NNW,338,2.9,2.9,40,0.00,,-RA,0.00,VWS V14.01,2013-05-27 03:55:00,